Jackson, TN

5:30 PM CST on November 23, 2017 (GMT -0600)
McKellar-Sipes Regional

Weather History for KMKL - April, 2013

Change the Weather History Date:

Thursday, April 4, 2013

  Actual Average Record
Temperature  
Mean Temperature 44 °F 57 °F  
Max Temperature 47 °F 69 °F 84 °F (1954)
Min Temperature 41 °F 44 °F 28 °F (1987)
Degree Days  
Heating Degree Days 21 9  
Month to date heating degree days 74 39  
Since 1 July heating degree days 3411 3367  
Cooling Degree Days 0 1  
Month to date cooling degree days 0 4  
Year to date cooling degree days 4 15  
Moisture  
Dew Point 41 °F    
Average Humidity 75    
Maximum Humidity 96    
Minimum Humidity 53    
Precipitation  
Precipitation 0.50 in 0.15 in 2.26 in (2008)
Month to date precipitation 0.50 0.61  
Year to date precipitation 16.29 13.60  
Snow  
Snow 0.00 in - - ()
Month to date snowfall 0.0  
Snow Depth 0.00 in    
Sea Level Pressure  
Sea Level Pressure 30.05 in    
Wind  
Wind Speed 6 mph (NE)    
Max Wind Speed 10 mph    
Max Gust Speed 13 mph    
Visibility 7 miles    
Events Rain    
T = Trace of Precipitation, MM = Missing Value Source: NWS Daily Summary

Daily Weather History Graph

Daily Weather History Graph

Search for Another Location

Airport or City:

Trip Planner

Search our weather history database for the weather conditions in past years. The results will help you decide how hot, cold, wet, or windy it might be!

Date:

Astronomy

Apr. 04, 2013 Rise Set
Actual Time 6:37 AM CDT 7:20 PM CDT
Civil Twilight 6:11 AM CDT 7:45 PM CDT
Nautical Twilight 5:41 AM CDT 8:16 PM CDT
Astronomical Twilight 5:10 AM CDT 8:47 PM CDT
Moon 2:52 AM CDT (4/4) 1:49 PM CDT (4/4)
Length of Visible Light 13h 33m
Length of Day
12h 42m
Waning Crescent, 33% of the Moon is Illuminated
Apr 4
Waning Crescent
Apr 10
New
Apr 18
First Quarter
Apr 25
Full
May 2
Last Quarter

Hourly Weather History & Observations

Time (CDT) Temp. Windchill Dew Point Humidity Pressure Visibility Wind Dir Wind Speed Gust Speed Precip Events Conditions
12:53 AM 46.9 °F - 30.9 °F 54% 30.14 in 10.0 mi ENE 5.8 mph - 0.00 in   Overcast
1:53 AM 45.0 °F 41.8 °F 34.0 °F 65% 30.11 in 10.0 mi ENE 5.8 mph - 0.00 in Rain Light Rain
2:53 AM 46.0 °F 44.8 °F 32.0 °F 58% 30.09 in 10.0 mi ENE 3.5 mph - 0.00 in   Overcast
3:53 AM 44.1 °F 41.5 °F 35.1 °F 71% 30.07 in 10.0 mi ENE 4.6 mph - 0.01 in Rain Light Rain
4:53 AM 43.0 °F 38.8 °F 36.0 °F 76% 30.06 in 10.0 mi NE 6.9 mph - 0.00 in Rain Light Rain
5:21 AM 42.8 °F 38.6 °F 35.6 °F 76% 30.06 in 10.0 mi NE 6.9 mph - 0.01 in Rain Light Rain
5:53 AM 41.0 °F 35.8 °F 37.0 °F 86% 30.07 in 5.0 mi NE 8.1 mph - 0.02 in Rain Light Rain
6:41 AM 41.0 °F 36.4 °F 37.4 °F 87% 30.07 in 7.0 mi ENE 6.9 mph - 0.03 in Rain Light Rain
6:53 AM 41.0 °F 35.8 °F 37.9 °F 89% 30.07 in 8.0 mi ENE 8.1 mph - 0.04 in Rain Light Rain
7:09 AM 41.0 °F 36.4 °F 37.4 °F 87% 30.07 in 7.0 mi NE 6.9 mph - 0.01 in Rain Light Rain
7:53 AM 41.0 °F 36.4 °F 37.9 °F 89% 30.07 in 4.0 mi ENE 6.9 mph - 0.02 in Rain Light Rain
8:01 AM 41.0 °F 36.4 °F 39.2 °F 93% 30.07 in 2.0 mi ENE 6.9 mph - 0.01 in Rain Light Rain
8:12 AM 41.0 °F 39.0 °F 39.2 °F 93% 30.07 in 4.0 mi NE 3.5 mph - 0.02 in Rain Light Rain
8:39 AM 41.0 °F 37.1 °F 39.2 °F 93% 30.07 in 2.0 mi NE 5.8 mph - 0.03 in Rain Light Rain
8:53 AM 41.0 °F 37.1 °F 39.0 °F 93% 30.08 in 2.5 mi NE 5.8 mph - 0.03 in Rain Light Rain
9:05 AM 41.0 °F 36.4 °F 39.2 °F 93% 30.07 in 3.0 mi NNE 6.9 mph - 0.01 in Rain Light Rain
9:53 AM 42.1 °F 37.7 °F 39.9 °F 92% 30.08 in 4.0 mi NE 6.9 mph - 0.01 in   Overcast
10:53 AM 43.0 °F 38.8 °F 41.0 °F 93% 30.08 in 7.0 mi NNE 6.9 mph - 0.00 in   Overcast
11:53 AM 44.1 °F 40.8 °F 42.1 °F 93% 30.07 in 6.0 mi NE 5.8 mph - 0.01 in Rain Light Rain
12:53 PM 45.0 °F 40.6 °F 43.0 °F 93% 30.06 in 2.5 mi NNE 8.1 mph - 0.12 in Rain Rain
1:00 PM 44.6 °F 40.2 °F 42.8 °F 93% 30.05 in 3.0 mi NE 8.1 mph - 0.02 in Rain Rain
1:08 PM 44.6 °F 40.2 °F 42.8 °F 93% 30.05 in 2.0 mi NE 8.1 mph - 0.04 in Rain Rain
1:44 PM 44.6 °F 40.2 °F 42.8 °F 93% 30.04 in 3.0 mi NE 8.1 mph - 0.06 in   Overcast
1:53 PM 45.0 °F 41.8 °F 43.0 °F 93% 30.04 in 3.0 mi NE 5.8 mph - 0.06 in   Overcast
2:14 PM 44.6 °F 40.2 °F 42.8 °F 93% 30.03 in 10.0 mi NE 8.1 mph - N/A   Overcast
2:53 PM 46.0 °F 41.9 °F 44.1 °F 93% 30.01 in 10.0 mi ENE 8.1 mph - N/A   Overcast
3:53 PM 46.9 °F - 44.1 °F 90% 30.00 in 10.0 mi ENE 5.8 mph - N/A   Overcast
4:53 PM 46.9 °F - 44.1 °F 90% 30.01 in 10.0 mi NE 5.8 mph - 0.00 in   Overcast
5:53 PM 46.0 °F 42.5 °F 44.1 °F 93% 30.01 in 10.0 mi NNE 6.9 mph - N/A   Overcast
6:53 PM 46.0 °F 43.1 °F 44.1 °F 93% 30.01 in 10.0 mi NE 5.8 mph - N/A   Overcast
7:03 PM 46.4 °F 44.3 °F 44.6 °F 93% 30.01 in 10.0 mi NE 4.6 mph - N/A   Overcast
7:28 PM 46.4 °F 44.3 °F 44.6 °F 93% 30.01 in 5.0 mi NNE 4.6 mph - 0.02 in Rain Rain
7:38 PM 46.4 °F 44.3 °F 44.6 °F 93% 30.01 in 4.0 mi NNE 4.6 mph - 0.04 in Rain Light Rain
7:53 PM 46.0 °F 44.8 °F 44.1 °F 93% 30.02 in 4.0 mi NNE 3.5 mph - 0.07 in Rain Rain
8:12 PM 46.4 °F 44.3 °F 44.6 °F 93% 30.02 in 5.0 mi NNE 4.6 mph - 0.02 in Rain Light Rain
8:22 PM 46.4 °F 44.3 °F 44.6 °F 93% 30.02 in 6.0 mi North 4.6 mph - 0.03 in Rain Light Rain
8:53 PM 46.0 °F 43.1 °F 44.1 °F 93% 30.04 in 6.0 mi North 5.8 mph - 0.08 in Rain Rain
9:24 PM 46.4 °F 44.3 °F 44.6 °F 93% 30.04 in 10.0 mi NNE 4.6 mph - 0.03 in Rain Light Rain
9:37 PM 46.4 °F 43.5 °F 44.6 °F 93% 30.04 in 9.0 mi North 5.8 mph - 0.03 in   Overcast
9:53 PM 46.0 °F 43.9 °F 45.0 °F 96% 30.04 in 8.0 mi NNE 4.6 mph - 0.03 in   Overcast
10:25 PM 46.4 °F - 44.6 °F 93% 30.04 in 10.0 mi Calm Calm - N/A   Overcast
10:53 PM 46.0 °F - 44.1 °F 93% 30.05 in 8.0 mi Calm Calm - N/A   Overcast
11:25 PM 46.4 °F - 44.6 °F 93% 30.05 in 6.0 mi Calm Calm - N/A   Overcast
11:34 PM 46.4 °F - 44.6 °F 93% 30.05 in 6.0 mi Calm Calm - N/A   Overcast
11:53 PM 46.0 °F - 45.0 °F 96% 30.05 in 6.0 mi Calm Calm - N/A   Overcast